Time,TemperatureF,DewpointF,PressureIn,WindDirection,WindDirectionDegrees,WindSpeedMPH,WindSpeedGustMPH,Humidity,HourlyPrecipIn,Conditions,Clouds,dailyrainin,SoftwareType,DateUTC
2013-06-29 00:00:00,72.1,58.4,29.74,East,98,2.0,6.0,62,0.00,,,0.00,Wunderground v.1.15,2013-06-29 05:00:00,
2013-06-29 00:06:00,71.8,58.1,29.74,East,100,2.0,6.0,62,0.00,,,0.00,Wunderground v.1.15,2013-06-29 05:06:00,
2013-06-29 00:11:00,71.4,58.1,29.74,East,91,1.0,6.0,63,0.00,,,0.00,Wunderground v.1.15,2013-06-29 05:11:00,
2013-06-29 00:17:00,71.1,58.3,29.74,East,90,1.0,6.0,64,0.00,,,0.00,Wunderground v.1.15,2013-06-29 05:17:00,
2013-06-29 00:23:00,70.9,58.5,29.74,ENE,76,1.0,6.0,65,0.00,,,0.00,Wunderground v.1.15,2013-06-29 05:23:00,
2013-06-29 00:29:00,70.9,58.5,29.74,East,89,2.0,6.0,65,0.00,,,0.00,Wunderground v.1.15,2013-06-29 05:29:00,
2013-06-29 00:34:00,70.9,58.5,29.74,East,96,2.0,6.0,65,0.00,,,0.00,Wunderground v.1.15,2013-06-29 05:34:00,
2013-06-29 00:40:00,70.9,58.5,29.74,ENE,76,2.0,6.0,65,0.00,,,0.00,Wunderground v.1.15,2013-06-29 05:40:00,
2013-06-29 00:46:00,70.9,58.5,29.73,ESE,114,3.0,6.0,65,0.00,,,0.00,Wunderground v.1.15,2013-06-29 05:46:00,
2013-06-29 00:52:00,71.0,58.2,29.73,East,96,3.0,6.0,64,0.00,,,0.00,Wunderground v.1.15,2013-06-29 05:52:00,
2013-06-29 00:58:00,70.9,58.5,29.73,East,85,2.0,6.0,65,0.00,,,0.00,Wunderground v.1.15,2013-06-29 05:58:00,
2013-06-29 01:04:00,70.9,58.5,29.73,East,96,3.0,6.0,65,0.00,,,0.00,Wunderground v.1.15,2013-06-29 06:04:00,
2013-06-29 01:10:00,70.9,58.5,29.73,East,91,3.0,3.0,65,0.00,,,0.00,Wunderground v.1.15,2013-06-29 06:10:00,
2013-06-29 01:15:00,70.8,58.0,29.73,East,86,4.0,6.0,64,0.00,,,0.00,Wunderground v.1.15,2013-06-29 06:15:00,
2013-06-29 01:21:00,70.8,58.0,29.73,East,98,3.0,6.0,64,0.00,,,0.00,Wunderground v.1.15,2013-06-29 06:21:00,
2013-06-29 01:27:00,70.8,58.0,29.73,ESE,104,3.0,6.0,64,0.00,,,0.00,Wunderground v.1.15,2013-06-29 06:27:00,
2013-06-29 01:33:00,70.9,58.1,29.73,ESE,104,3.0,6.0,64,0.00,,,0.00,Wunderground v.1.15,2013-06-29 06:33:00,
2013-06-29 01:38:00,71.0,58.2,29.73,ESE,109,3.0,6.0,64,0.00,,,0.00,Wunderground v.1.15,2013-06-29 06:38:00,
2013-06-29 01:44:00,71.0,58.2,29.73,ENE,64,3.0,6.0,64,0.00,,,0.00,Wunderground v.1.15,2013-06-29 06:44:00,
2013-06-29 01:50:00,71.0,58.2,29.73,NE,44,3.0,6.0,64,0.00,,,0.00,Wunderground v.1.15,2013-06-29 06:50:00,
2013-06-29 01:56:00,71.0,58.2,29.73,SE,126,3.0,7.0,64,0.00,,,0.00,Wunderground v.1.15,2013-06-29 06:56:00,
2013-06-29 02:02:00,71.1,58.3,29.74,ESE,103,3.0,6.0,64,0.00,,,0.00,Wunderground v.1.15,2013-06-29 07:02:00,
2013-06-29 02:08:00,70.9,58.1,29.73,ESE,115,3.0,6.0,64,0.00,,,0.00,Wunderground v.1.15,2013-06-29 07:08:00,
2013-06-29 02:14:00,70.9,58.5,29.73,East,91,3.0,6.0,65,0.00,,,0.00,Wunderground v.1.15,2013-06-29 07:14:00,
2013-06-29 02:19:00,70.7,58.4,29.73,ESE,103,3.0,6.0,65,0.00,,,0.00,Wunderground v.1.15,2013-06-29 07:19:00,
2013-06-29 02:25:00,70.6,58.3,29.73,SE,128,3.0,6.0,65,0.00,,,0.00,Wunderground v.1.15,2013-06-29 07:25:00,
2013-06-29 02:31:00,70.4,58.5,29.73,SE,131,3.0,6.0,66,0.00,,,0.00,Wunderground v.1.15,2013-06-29 07:31:00,
2013-06-29 02:37:00,70.3,58.4,29.73,ESE,104,3.0,6.0,66,0.00,,,0.00,Wunderground v.1.15,2013-06-29 07:37:00,
2013-06-29 02:42:00,70.2,58.3,29.73,ESE,111,3.0,6.0,66,0.00,,,0.00,Wunderground v.1.15,2013-06-29 07:42:00,
2013-06-29 02:48:00,70.0,58.5,29.73,ENE,78,3.0,7.0,67,0.00,,,0.00,Wunderground v.1.15,2013-06-29 07:48:00,
2013-06-29 02:54:00,69.8,58.8,29.73,ENE,70,3.0,6.0,68,0.00,,,0.00,Wunderground v.1.15,2013-06-29 07:54:00,
2013-06-29 03:00:00,69.6,58.6,29.73,ENE,75,3.0,6.0,68,0.00,,,0.00,Wunderground v.1.15,2013-06-29 08:00:00,
2013-06-29 03:06:00,69.4,58.8,29.73,East,82,3.0,6.0,69,0.00,,,0.00,Wunderground v.1.15,2013-06-29 08:06:00,
2013-06-29 03:12:00,69.3,58.7,29.73,ESE,103,3.0,6.0,69,0.00,,,0.00,Wunderground v.1.15,2013-06-29 08:12:00,
2013-06-29 03:18:00,69.2,58.6,29.73,East,100,4.0,6.0,69,0.00,,,0.00,Wunderground v.1.15,2013-06-29 08:18:00,
2013-06-29 03:23:00,69.1,58.5,29.73,East,99,3.0,6.0,69,0.00,,,0.00,Wunderground v.1.15,2013-06-29 08:23:00,
2013-06-29 03:29:00,68.9,58.7,29.72,ESE,109,3.0,6.0,70,0.00,,,0.00,Wunderground v.1.15,2013-06-29 08:29:00,
2013-06-29 03:35:00,68.9,58.7,29.73,SE,142,3.0,7.0,70,0.00,,,0.00,Wunderground v.1.15,2013-06-29 08:35:00,
2013-06-29 03:41:00,68.8,58.6,29.72,ESE,107,4.0,6.0,70,0.00,,,0.00,Wunderground v.1.15,2013-06-29 08:41:00,
2013-06-29 03:46:00,68.7,58.9,29.73,ENE,76,4.0,6.0,71,0.00,,,0.00,Wunderground v.1.15,2013-06-29 08:46:00,
2013-06-29 03:52:00,68.5,59.1,29.73,ENE,57,3.0,7.0,72,0.00,,,0.00,Wunderground v.1.15,2013-06-29 08:52:00,
2013-06-29 03:58:00,68.5,59.1,29.73,ENE,72,4.0,7.0,72,0.00,,,0.00,Wunderground v.1.15,2013-06-29 08:58:00,
2013-06-29 04:04:00,68.4,59.0,29.73,ESE,110,3.0,6.0,72,0.00,,,0.00,Wunderground v.1.15,2013-06-29 09:04:00,
2013-06-29 04:10:00,68.3,59.3,29.73,East,100,3.0,3.0,73,0.00,,,0.00,Wunderground v.1.15,2013-06-29 09:10:00,
2013-06-29 04:16:00,68.2,59.2,29.73,ESE,104,3.0,6.0,73,0.00,,,0.00,Wunderground v.1.15,2013-06-29 09:16:00,
2013-06-29 04:22:00,68.2,59.2,29.73,East,81,4.0,7.0,73,0.00,,,0.00,Wunderground v.1.15,2013-06-29 09:22:00,
2013-06-29 04:27:00,68.0,59.4,29.73,East,87,3.0,7.0,74,0.00,,,0.00,Wunderground v.1.15,2013-06-29 09:27:00,
2013-06-29 04:33:00,67.8,59.2,29.73,East,83,3.0,6.0,74,0.00,,,0.00,Wunderground v.1.15,2013-06-29 09:33:00,
2013-06-29 04:39:00,67.7,59.1,29.73,East,101,3.0,6.0,74,0.00,,,0.00,Wunderground v.1.15,2013-06-29 09:39:00,
2013-06-29 04:45:00,67.7,59.1,29.73,ESE,111,4.0,8.0,74,0.00,,,0.00,Wunderground v.1.15,2013-06-29 09:45:00,
2013-06-29 04:50:00,67.6,59.0,29.73,ESE,102,3.0,6.0,74,0.00,,,0.00,Wunderground v.1.15,2013-06-29 09:50:00,
2013-06-29 04:56:00,67.5,59.3,29.73,East,89,3.0,6.0,75,0.00,,,0.00,Wunderground v.1.15,2013-06-29 09:56:00,
2013-06-29 05:02:00,67.3,59.1,29.73,ESE,103,3.0,6.0,75,0.00,,,0.00,Wunderground v.1.15,2013-06-29 10:02:00,
2013-06-29 05:08:00,67.1,59.3,29.74,ESE,115,2.0,6.0,76,0.00,,,0.00,Wunderground v.1.15,2013-06-29 10:08:00,
2013-06-29 05:14:00,67.1,59.3,29.74,East,84,3.0,6.0,76,0.00,,,0.00,Wunderground v.1.15,2013-06-29 10:14:00,
2013-06-29 05:20:00,67.0,59.2,29.74,East,97,3.0,6.0,76,0.00,,,0.00,Wunderground v.1.15,2013-06-29 10:20:00,
2013-06-29 05:26:00,66.7,59.3,29.74,NE,50,2.0,6.0,77,0.00,,,0.00,Wunderground v.1.15,2013-06-29 10:26:00,
2013-06-29 05:31:00,66.6,59.2,29.74,East,79,2.0,4.0,77,0.00,,,0.00,Wunderground v.1.15,2013-06-29 10:31:00,
2013-06-29 05:37:00,66.7,59.3,29.74,East,79,3.0,6.0,77,0.00,,,0.00,Wunderground v.1.15,2013-06-29 10:37:00,
2013-06-29 05:43:00,66.6,59.2,29.74,ENE,73,4.0,6.0,77,0.00,,,0.00,Wunderground v.1.15,2013-06-29 10:43:00,
2013-06-29 05:49:00,66.6,59.2,29.74,SE,130,3.0,7.0,77,0.00,,,0.00,Wunderground v.1.15,2013-06-29 10:49:00,
2013-06-29 05:54:00,66.5,59.1,29.74,ENE,61,4.0,6.0,77,0.00,,,0.00,Wunderground v.1.15,2013-06-29 10:54:00,
2013-06-29 06:00:00,66.4,59.3,29.74,ENE,70,3.0,6.0,78,0.00,,,0.00,Wunderground v.1.15,2013-06-29 11:00:00,
2013-06-29 06:06:00,66.4,59.3,29.74,East,84,3.0,6.0,78,0.00,,,0.00,Wunderground v.1.15,2013-06-29 11:06:00,
2013-06-29 06:12:00,66.4,59.3,29.74,East,79,3.0,6.0,78,0.00,,,0.00,Wunderground v.1.15,2013-06-29 11:12:00,
2013-06-29 06:18:00,66.4,59.3,29.74,East,89,3.0,6.0,78,0.00,,,0.00,Wunderground v.1.15,2013-06-29 11:18:00,
2013-06-29 06:24:00,66.3,59.6,29.74,ESE,104,3.0,6.0,79,0.00,,,0.00,Wunderground v.1.15,2013-06-29 11:24:00,
2013-06-29 06:30:00,66.1,59.4,29.74,ESE,105,2.0,2.0,79,0.00,,,0.00,Wunderground v.1.15,2013-06-29 11:30:00,
2013-06-29 06:36:00,66.1,59.4,29.74,ESE,110,3.0,6.0,79,0.00,,,0.00,Wunderground v.1.15,2013-06-29 11:36:00,
2013-06-29 06:41:00,66.0,59.7,29.74,ESE,109,2.0,6.0,80,0.00,,,0.00,Wunderground v.1.15,2013-06-29 11:41:00,
2013-06-29 06:47:00,66.2,59.5,29.74,East,89,2.0,6.0,79,0.00,,,0.00,Wunderground v.1.15,2013-06-29 11:47:00,
2013-06-29 06:53:00,66.2,59.5,29.74,East,84,3.0,6.0,79,0.00,,,0.00,Wunderground v.1.15,2013-06-29 11:53:00,
2013-06-29 06:59:00,66.3,59.6,29.74,East,101,3.0,6.0,79,0.00,,,0.00,Wunderground v.1.15,2013-06-29 11:59:00,
2013-06-29 07:05:00,66.5,59.8,29.74,ESE,103,3.0,6.0,79,0.00,,,0.00,Wunderground v.1.15,2013-06-29 12:05:00,
2013-06-29 07:11:00,66.8,60.1,29.74,ESE,117,3.0,10.0,79,0.00,,,0.00,Wunderground v.1.15,2013-06-29 12:11:00,
2013-06-29 07:17:00,67.1,60.0,29.74,ESE,105,4.0,10.0,78,0.00,,,0.00,Wunderground v.1.15,2013-06-29 12:17:00,
2013-06-29 07:22:00,67.3,60.6,29.74,East,92,3.0,6.0,79,0.00,,,0.00,Wunderground v.1.15,2013-06-29 12:22:00,
2013-06-29 07:28:00,67.5,60.4,29.74,East,96,3.0,6.0,78,0.00,,,0.00,Wunderground v.1.15,2013-06-29 12:28:00,
2013-06-29 07:34:00,67.6,60.1,29.74,ESE,107,4.0,6.0,77,0.00,,,0.00,Wunderground v.1.15,2013-06-29 12:34:00,
2013-06-29 07:40:00,67.7,60.2,29.74,East,96,4.0,6.0,77,0.00,,,0.00,Wunderground v.1.15,2013-06-29 12:40:00,
2013-06-29 07:45:00,67.9,60.4,29.73,ESE,114,4.0,6.0,77,0.00,,,0.00,Wunderground v.1.15,2013-06-29 12:45:00,
2013-06-29 07:51:00,68.2,60.7,29.74,ESE,104,3.0,6.0,77,0.00,,,0.00,Wunderground v.1.15,2013-06-29 12:51:00,
2013-06-29 07:57:00,68.4,60.5,29.74,ESE,122,4.0,6.0,76,0.00,,,0.00,Wunderground v.1.15,2013-06-29 12:57:00,
2013-06-29 08:02:00,68.7,60.8,29.74,ENE,75,4.0,7.0,76,0.00,,,0.00,Wunderground v.1.15,2013-06-29 13:02:00,
2013-06-29 08:08:00,69.0,61.5,29.74,ESE,117,4.0,7.0,77,0.00,,,0.00,Wunderground v.1.15,2013-06-29 13:08:00,
2013-06-29 08:14:00,69.2,60.9,29.74,ENE,75,3.0,6.0,75,0.00,,,0.00,Wunderground v.1.15,2013-06-29 13:14:00,
2013-06-29 08:19:00,69.4,61.1,29.74,ESE,105,4.0,6.0,75,0.00,,,0.00,Wunderground v.1.15,2013-06-29 13:19:00,
2013-06-29 08:25:00,69.7,61.4,29.74,ESE,111,4.0,6.0,75,0.00,,,0.00,Wunderground v.1.15,2013-06-29 13:25:00,
2013-06-29 08:30:00,69.8,61.1,29.74,NE,56,4.0,6.0,74,0.00,,,0.00,Wunderground v.1.15,2013-06-29 13:30:00,
2013-06-29 08:36:00,69.9,61.6,29.74,East,84,5.0,8.0,75,0.00,,,0.00,Wunderground v.1.15,2013-06-29 13:36:00,
2013-06-29 08:41:00,70.0,61.7,29.74,ENE,77,4.0,6.0,75,0.00,,,0.00,Wunderground v.1.15,2013-06-29 13:41:00,
2013-06-29 08:47:00,70.2,61.9,29.74,ESE,102,4.0,7.0,75,0.00,,,0.00,Wunderground v.1.15,2013-06-29 13:47:00,
2013-06-29 08:53:00,70.6,62.3,29.74,ESE,105,4.0,6.0,75,0.00,,,0.00,Wunderground v.1.15,2013-06-29 13:53:00,
2013-06-29 08:59:00,70.7,61.6,29.74,SE,128,5.0,6.0,73,0.00,,,0.00,Wunderground v.1.15,2013-06-29 13:59:00,
2013-06-29 09:05:00,70.8,62.1,29.74,ENE,72,5.0,11.0,74,0.00,,,0.00,Wunderground v.1.15,2013-06-29 14:05:00,
2013-06-29 09:11:00,71.3,62.2,29.74,East,93,5.0,9.0,73,0.00,,,0.00,Wunderground v.1.15,2013-06-29 14:11:00,
2013-06-29 09:17:00,71.5,62.4,29.74,SE,126,4.0,9.0,73,0.00,,,0.00,Wunderground v.1.15,2013-06-29 14:17:00,
2013-06-29 09:23:00,71.1,61.6,29.74,NE,46,5.0,6.0,72,0.00,,,0.00,Wunderground v.1.15,2013-06-29 14:23:00,
2013-06-29 09:28:00,70.7,61.6,29.74,East,80,6.0,9.0,73,0.00,,,0.00,Wunderground v.1.15,2013-06-29 14:28:00,
2013-06-29 09:34:00,70.6,61.9,29.74,NE,50,6.0,6.0,74,0.00,,,0.00,Wunderground v.1.15,2013-06-29 14:34:00,
2013-06-29 09:40:00,70.5,61.8,29.74,ESE,113,5.0,5.0,74,0.00,,,0.00,Wunderground v.1.15,2013-06-29 14:40:00,
2013-06-29 09:46:00,70.9,62.2,29.74,East,100,5.0,6.0,74,0.00,,,0.00,Wunderground v.1.15,2013-06-29 14:46:00,
2013-06-29 09:52:00,70.9,61.8,29.73,East,88,5.0,10.0,73,0.00,,,0.00,Wunderground v.1.15,2013-06-29 14:52:00,
2013-06-29 09:58:00,70.7,61.6,29.73,ENE,77,5.0,10.0,73,0.00,,,0.00,Wunderground v.1.15,2013-06-29 14:58:00,
2013-06-29 10:04:00,71.1,62.0,29.73,ESE,102,4.0,8.0,73,0.00,,,0.00,Wunderground v.1.15,2013-06-29 15:04:00,
2013-06-29 10:07:00,71.2,61.7,29.73,ENE,71,4.0,8.0,72,0.00,,,0.00,Wunderground v.1.15,2013-06-29 15:07:00,
2013-06-29 10:13:00,71.4,61.5,29.73,ENE,72,5.0,6.0,71,0.00,,,0.00,Wunderground v.1.15,2013-06-29 15:13:00,
2013-06-29 10:19:00,71.5,60.8,29.73,SSE,150,5.0,9.0,69,0.00,,,0.00,Wunderground v.1.15,2013-06-29 15:19:00,
2013-06-29 10:25:00,71.7,61.4,29.73,ESE,113,4.0,8.0,70,0.00,,,0.00,Wunderground v.1.15,2013-06-29 15:25:00,
2013-06-29 10:30:00,71.2,61.7,29.73,ESE,113,4.0,4.0,72,0.00,,,0.00,Wunderground v.1.15,2013-06-29 15:30:00,
2013-06-29 10:36:00,71.5,62.0,29.73,SE,132,4.0,10.0,72,0.00,,,0.00,Wunderground v.1.15,2013-06-29 15:36:00,
2013-06-29 10:42:00,71.8,61.9,29.73,ESE,111,4.0,6.0,71,0.00,,,0.00,Wunderground v.1.15,2013-06-29 15:42:00,
2013-06-29 10:48:00,71.4,61.1,29.73,East,87,5.0,9.0,70,0.00,,,0.00,Wunderground v.1.15,2013-06-29 15:48:00,
2013-06-29 10:53:00,71.1,61.2,29.73,East,91,5.0,14.0,71,0.00,,,0.00,Wunderground v.1.15,2013-06-29 15:53:00,
2013-06-29 10:56:00,71.0,61.1,29.73,SSE,150,6.0,14.0,71,0.00,,,0.00,Wunderground v.1.15,2013-06-29 15:56:00,
2013-06-29 11:02:00,71.5,61.6,29.73,East,101,6.0,6.0,71,0.00,,,0.00,Wunderground v.1.15,2013-06-29 16:02:00,
2013-06-29 11:08:00,71.6,61.7,29.73,East,101,6.0,12.0,71,0.00,,,0.00,Wunderground v.1.15,2013-06-29 16:08:00,
2013-06-29 11:13:00,71.9,61.6,29.73,East,98,5.0,6.0,70,0.00,,,0.00,Wunderground v.1.15,2013-06-29 16:13:00,
2013-06-29 11:19:00,71.6,61.3,29.73,ESE,122,4.0,9.0,70,0.00,,,0.00,Wunderground v.1.15,2013-06-29 16:19:00,
2013-06-29 11:25:00,71.4,61.1,29.74,ESE,113,5.0,14.0,70,0.00,,,0.00,Wunderground v.1.15,2013-06-29 16:25:00,
2013-06-29 11:31:00,71.6,61.3,29.74,East,94,6.0,7.0,70,0.00,,,0.00,Wunderground v.1.15,2013-06-29 16:31:00,
2013-06-29 11:36:00,71.2,60.9,29.74,ESE,109,6.0,8.0,70,0.00,,,0.00,Wunderground v.1.15,2013-06-29 16:36:00,
2013-06-29 11:42:00,70.9,61.0,29.74,SE,137,5.0,6.0,71,0.00,,,0.00,Wunderground v.1.15,2013-06-29 16:42:00,
2013-06-29 11:48:00,71.6,62.1,29.73,East,79,4.0,6.0,72,0.00,,,0.00,Wunderground v.1.15,2013-06-29 16:48:00,
2013-06-29 11:54:00,71.2,60.9,29.74,East,96,3.0,9.0,70,0.00,,,0.00,Wunderground v.1.15,2013-06-29 16:54:00,
2013-06-29 12:00:00,69.5,62.3,29.74,SE,139,4.0,4.0,78,0.00,,,0.01,Wunderground v.1.15,2013-06-29 17:00:00,
2013-06-29 12:06:00,67.3,62.0,29.74,SSE,150,3.0,6.0,83,0.59,,,0.05,Wunderground v.1.15,2013-06-29 17:06:00,
2013-06-29 12:12:00,66.8,62.5,29.75,East,81,3.0,6.0,86,0.09,,,0.05,Wunderground v.1.15,2013-06-29 17:12:00,
2013-06-29 12:17:00,66.7,62.0,29.75,East,91,4.0,8.0,85,0.06,,,0.06,Wunderground v.1.15,2013-06-29 17:17:00,
2013-06-29 12:22:00,65.7,62.0,29.75,East,98,6.0,8.0,88,0.06,,,0.06,Wunderground v.1.15,2013-06-29 17:22:00,
2013-06-29 12:28:00,65.7,62.7,29.75,SE,146,5.0,8.0,90,0.04,,,0.06,Wunderground v.1.15,2013-06-29 17:28:00,
2013-06-29 12:34:00,66.4,63.7,29.74,ESE,105,4.0,7.0,91,0.00,,,0.06,Wunderground v.1.15,2013-06-29 17:34:00,
2013-06-29 12:40:00,66.6,63.6,29.74,East,98,3.0,6.0,90,0.00,,,0.06,Wunderground v.1.15,2013-06-29 17:40:00,
2013-06-29 12:46:00,67.7,64.7,29.74,South,178,3.0,6.0,90,0.00,,,0.06,Wunderground v.1.15,2013-06-29 17:46:00,
2013-06-29 12:52:00,69.1,65.4,29.74,SSE,162,3.0,6.0,88,0.00,,,0.06,Wunderground v.1.15,2013-06-29 17:52:00,
2013-06-29 12:57:00,69.9,64.8,29.74,SSE,165,5.0,7.0,84,0.00,,,0.06,Wunderground v.1.15,2013-06-29 17:57:00,
2013-06-29 13:02:00,70.6,64.8,29.74,SE,136,4.0,6.0,82,0.00,,,0.06,Wunderground v.1.15,2013-06-29 18:02:00,
2013-06-29 13:08:00,71.9,63.2,29.74,ESE,111,3.0,6.0,74,0.00,,,0.06,Wunderground v.1.15,2013-06-29 18:08:00,
2013-06-29 13:14:00,72.5,61.7,29.74,SSE,157,4.0,16.0,69,0.00,,,0.06,Wunderground v.1.15,2013-06-29 18:14:00,
2013-06-29 13:20:00,73.3,61.3,29.74,SE,129,5.0,6.0,66,0.00,,,0.06,Wunderground v.1.15,2013-06-29 18:20:00,
2013-06-29 13:25:00,72.9,61.3,29.74,SSE,163,5.0,13.0,67,0.00,,,0.06,Wunderground v.1.15,2013-06-29 18:25:00,
2013-06-29 13:31:00,72.3,61.6,29.74,ESE,102,5.0,6.0,69,0.00,,,0.06,Wunderground v.1.15,2013-06-29 18:31:00,
2013-06-29 13:37:00,72.7,61.5,29.75,East,93,4.0,7.0,68,0.00,,,0.06,Wunderground v.1.15,2013-06-29 18:37:00,
2013-06-29 13:43:00,72.1,61.8,29.75,SE,137,5.0,6.0,70,0.00,,,0.06,Wunderground v.1.15,2013-06-29 18:43:00,
2013-06-29 13:48:00,71.1,62.4,29.75,ESE,111,5.0,6.0,74,0.00,,,0.06,Wunderground v.1.15,2013-06-29 18:48:00,
2013-06-29 13:54:00,70.9,62.2,29.75,ESE,103,4.0,6.0,74,0.00,,,0.06,Wunderground v.1.15,2013-06-29 18:54:00,
2013-06-29 14:00:00,71.7,61.8,29.75,SSE,152,4.0,6.0,71,0.00,,,0.06,Wunderground v.1.15,2013-06-29 19:00:00,
2013-06-29 14:06:00,72.8,63.2,29.75,ESE,115,4.0,8.0,72,0.00,,,0.06,Wunderground v.1.15,2013-06-29 19:06:00,
2013-06-29 14:11:00,73.3,63.7,29.75,ESE,121,4.0,5.0,72,0.00,,,0.06,Wunderground v.1.15,2013-06-29 19:11:00,
2013-06-29 14:16:00,73.6,62.8,29.75,SE,124,4.0,6.0,69,0.00,,,0.06,Wunderground v.1.15,2013-06-29 19:16:00,
2013-06-29 14:22:00,72.6,62.3,29.75,East,83,5.0,7.0,70,0.00,,,0.06,Wunderground v.1.15,2013-06-29 19:22:00,
2013-06-29 14:28:00,72.2,62.3,29.75,ESE,119,4.0,7.0,71,0.00,,,0.06,Wunderground v.1.15,2013-06-29 19:28:00,
2013-06-29 14:33:00,72.4,61.7,29.75,ESE,104,4.0,7.0,69,0.00,,,0.06,Wunderground v.1.15,2013-06-29 19:33:00,
2013-06-29 14:39:00,74.0,62.8,29.75,South,180,4.0,7.0,68,0.00,,,0.06,Wunderground v.1.15,2013-06-29 19:39:00,
2013-06-29 14:45:00,74.5,62.0,29.75,East,93,4.0,11.0,65,0.00,,,0.06,Wunderground v.1.15,2013-06-29 19:45:00,
2013-06-29 14:51:00,74.2,60.8,29.75,SSE,162,6.0,12.0,63,0.00,,,0.06,Wunderground v.1.15,2013-06-29 19:51:00,
2013-06-29 14:56:00,73.8,60.9,29.76,SSW,195,5.0,12.0,64,0.00,,,0.06,Wunderground v.1.15,2013-06-29 19:56:00,
2013-06-29 15:02:00,73.2,61.2,29.76,ESE,106,5.0,6.0,66,0.00,,,0.06,Wunderground v.1.15,2013-06-29 20:02:00,
2013-06-29 15:08:00,73.2,61.6,29.76,SSE,150,5.0,6.0,67,0.00,,,0.06,Wunderground v.1.15,2013-06-29 20:08:00,
2013-06-29 15:14:00,73.3,61.3,29.76,East,101,5.0,10.0,66,0.00,,,0.06,Wunderground v.1.15,2013-06-29 20:14:00,
2013-06-29 15:19:00,73.6,62.0,29.76,ESE,105,5.0,10.0,67,0.00,,,0.06,Wunderground v.1.15,2013-06-29 20:19:00,
2013-06-29 15:25:00,73.1,61.9,29.76,SE,137,4.0,16.0,68,0.00,,,0.06,Wunderground v.1.15,2013-06-29 20:25:00,
2013-06-29 15:31:00,72.4,61.2,29.76,ENE,74,4.0,6.0,68,0.00,,,0.06,Wunderground v.1.15,2013-06-29 20:31:00,
2013-06-29 15:36:00,72.3,61.6,29.76,SE,141,3.0,6.0,69,0.00,,,0.06,Wunderground v.1.15,2013-06-29 20:36:00,
2013-06-29 15:42:00,72.3,60.7,29.77,ESE,114,4.0,7.0,67,0.00,,,0.06,Wunderground v.1.15,2013-06-29 20:42:00,
2013-06-29 15:48:00,72.3,60.7,29.77,ESE,121,5.0,7.0,67,0.00,,,0.06,Wunderground v.1.15,2013-06-29 20:48:00,
2013-06-29 15:54:00,72.6,61.8,29.77,SSW,197,5.0,6.0,69,0.00,,,0.06,Wunderground v.1.15,2013-06-29 20:54:00,
2013-06-29 15:59:00,73.6,62.4,29.77,SE,138,4.0,9.0,68,0.00,,,0.06,Wunderground v.1.15,2013-06-29 20:59:00,
2013-06-29 16:05:00,74.4,61.9,29.77,South,172,4.0,6.0,65,0.00,,,0.06,Wunderground v.1.15,2013-06-29 21:05:00,
2013-06-29 16:11:00,73.1,60.6,29.77,South,172,5.0,9.0,65,0.00,,,0.06,Wunderground v.1.15,2013-06-29 21:11:00,
2013-06-29 16:17:00,71.9,60.8,29.77,SSE,152,5.0,9.0,68,0.00,,,0.06,Wunderground v.1.15,2013-06-29 21:17:00,
2013-06-29 16:23:00,71.5,61.2,29.77,SE,143,4.0,11.0,70,0.00,,,0.06,Wunderground v.1.15,2013-06-29 21:23:00,
2013-06-29 16:29:00,71.8,60.7,29.77,SE,124,4.0,11.0,68,0.00,,,0.06,Wunderground v.1.15,2013-06-29 21:29:00,
2013-06-29 16:35:00,72.0,61.3,29.77,SE,141,4.0,6.0,69,0.00,,,0.06,Wunderground v.1.15,2013-06-29 21:35:00,
2013-06-29 16:41:00,72.2,61.0,29.77,SSE,167,3.0,14.0,68,0.00,,,0.06,Wunderground v.1.15,2013-06-29 21:41:00,
2013-06-29 16:46:00,72.9,60.9,29.77,SSE,150,4.0,14.0,66,0.00,,,0.06,Wunderground v.1.15,2013-06-29 21:46:00,
2013-06-29 16:52:00,74.2,61.7,29.77,SE,132,4.0,6.0,65,0.00,,,0.06,Wunderground v.1.15,2013-06-29 21:52:00,
2013-06-29 16:58:00,74.9,61.5,29.77,SE,138,4.0,9.0,63,0.00,,,0.06,Wunderground v.1.15,2013-06-29 21:58:00,
2013-06-29 17:04:00,73.9,60.5,29.77,SSW,201,6.0,12.0,63,0.00,,,0.06,Wunderground v.1.15,2013-06-29 22:04:00,
2013-06-29 17:09:00,73.4,60.5,29.77,SE,144,5.0,12.0,64,0.00,,,0.06,Wunderground v.1.15,2013-06-29 22:09:00,
2013-06-29 17:15:00,74.1,61.1,29.77,SE,131,5.0,9.0,64,0.00,,,0.06,Wunderground v.1.15,2013-06-29 22:15:00,
2013-06-29 17:21:00,74.9,59.1,29.77,ESE,123,5.0,6.0,58,0.00,,,0.06,Wunderground v.1.15,2013-06-29 22:21:00,
2013-06-29 17:27:00,75.1,60.3,29.77,SE,140,5.0,9.0,60,0.00,,,0.06,Wunderground v.1.15,2013-06-29 22:27:00,
2013-06-29 17:33:00,74.9,60.1,29.78,East,100,4.0,6.0,60,0.00,,,0.06,Wunderground v.1.15,2013-06-29 22:33:00,
2013-06-29 17:39:00,74.1,59.3,29.78,SSW,193,5.0,9.0,60,0.00,,,0.06,Wunderground v.1.15,2013-06-29 22:39:00,
2013-06-29 17:45:00,74.4,60.1,29.78,SSE,150,5.0,6.0,61,0.00,,,0.06,Wunderground v.1.15,2013-06-29 22:45:00,
2013-06-29 17:50:00,74.5,60.6,29.78,SSE,160,4.0,4.0,62,0.00,,,0.06,Wunderground v.1.15,2013-06-29 22:50:00,
2013-06-29 17:56:00,73.7,60.3,29.78,SE,136,4.0,7.0,63,0.00,,,0.06,Wunderground v.1.15,2013-06-29 22:56:00,
2013-06-29 18:02:00,74.0,60.2,29.78,SE,136,4.0,6.0,62,0.00,,,0.06,Wunderground v.1.15,2013-06-29 23:02:00,
2013-06-29 18:08:00,74.3,60.4,29.78,SSE,167,4.0,6.0,62,0.00,,,0.06,Wunderground v.1.15,2013-06-29 23:08:00,
2013-06-29 18:09:00,74.3,60.0,29.78,SE,124,4.0,7.0,61,0.00,,,0.06,Wunderground v.1.15,2013-06-29 23:09:00,
2013-06-29 18:14:00,74.3,58.1,29.78,SSW,194,5.0,10.0,57,0.00,,,0.06,Wunderground v.1.15,2013-06-29 23:14:00,
2013-06-29 18:20:00,74.0,57.8,29.78,ESE,114,5.0,6.0,57,0.00,,,0.06,Wunderground v.1.15,2013-06-29 23:20:00,
2013-06-29 18:26:00,73.6,57.4,29.79,ESE,113,5.0,8.0,57,0.00,,,0.06,Wunderground v.1.15,2013-06-29 23:26:00,
2013-06-29 18:31:00,73.7,58.5,29.79,South,183,5.0,7.0,59,0.00,,,0.06,Wunderground v.1.15,2013-06-29 23:31:00,
2013-06-29 18:37:00,74.0,58.8,29.79,ESE,103,4.0,7.0,59,0.00,,,0.06,Wunderground v.1.15,2013-06-29 23:37:00,
2013-06-29 18:42:00,74.0,58.8,29.79,SSE,156,4.0,6.0,59,0.00,,,0.06,Wunderground v.1.15,2013-06-29 23:42:00,
2013-06-29 18:48:00,74.1,58.9,29.79,SE,135,4.0,6.0,59,0.00,,,0.06,Wunderground v.1.15,2013-06-29 23:48:00,
2013-06-29 18:54:00,73.9,58.7,29.79,NW,315,4.0,9.0,59,0.00,,,0.06,Wunderground v.1.15,2013-06-29 23:54:00,
2013-06-29 19:00:00,73.2,58.5,29.80,SE,128,5.0,11.0,60,0.00,,,0.06,Wunderground v.1.15,2013-06-30 00:00:00,
2013-06-29 19:05:00,72.0,57.8,29.80,SE,144,7.0,11.0,61,0.00,,,0.06,Wunderground v.1.15,2013-06-30 00:05:00,
2013-06-29 19:11:00,71.2,58.4,29.81,SE,145,6.0,9.0,64,0.00,,,0.06,Wunderground v.1.15,2013-06-30 00:11:00,
2013-06-29 19:17:00,70.4,58.9,29.81,SE,134,6.0,10.0,67,0.00,,,0.06,Wunderground v.1.15,2013-06-30 00:17:00,
2013-06-29 19:23:00,70.1,59.0,29.81,SSE,150,6.0,7.0,68,0.00,,,0.06,Wunderground v.1.15,2013-06-30 00:23:00,
2013-06-29 19:29:00,69.6,57.7,29.81,SSE,148,5.0,7.0,66,0.00,,,0.06,Wunderground v.1.15,2013-06-30 00:29:00,
2013-06-29 19:35:00,69.3,57.5,29.82,SE,136,5.0,11.0,66,0.00,,,0.06,Wunderground v.1.15,2013-06-30 00:35:00,
2013-06-29 19:41:00,69.0,57.6,29.81,ESE,121,4.0,6.0,67,0.00,,,0.06,Wunderground v.1.15,2013-06-30 00:41:00,
2013-06-29 19:46:00,68.8,57.4,29.82,SSE,162,4.0,6.0,67,0.00,,,0.06,Wunderground v.1.15,2013-06-30 00:46:00,
2013-06-29 19:52:00,68.8,57.8,29.82,NW,324,4.0,6.0,68,0.00,,,0.06,Wunderground v.1.15,2013-06-30 00:52:00,
2013-06-29 19:58:00,68.6,57.6,29.82,SSW,193,4.0,6.0,68,0.00,,,0.06,Wunderground v.1.15,2013-06-30 00:58:00,
2013-06-29 20:04:00,68.5,56.7,29.82,SE,132,5.0,8.0,66,0.00,,,0.06,Wunderground v.1.15,2013-06-30 01:04:00,
2013-06-29 20:09:00,68.4,57.0,29.82,SE,142,5.0,8.0,67,0.00,,,0.06,Wunderground v.1.15,2013-06-30 01:09:00,
2013-06-29 20:15:00,68.3,56.9,29.82,SW,224,4.0,9.0,67,0.00,,,0.06,Wunderground v.1.15,2013-06-30 01:15:00,
2013-06-29 20:21:00,68.2,56.8,29.83,ESE,118,5.0,6.0,67,0.00,,,0.06,Wunderground v.1.15,2013-06-30 01:21:00,
2013-06-29 20:27:00,68.1,57.1,29.83,SSE,152,4.0,6.0,68,0.00,,,0.06,Wunderground v.1.15,2013-06-30 01:27:00,
2013-06-29 20:33:00,68.0,57.4,29.83,SSE,150,3.0,6.0,69,0.00,,,0.06,Wunderground v.1.15,2013-06-30 01:33:00,
2013-06-29 20:39:00,67.8,57.3,29.83,South,171,3.0,6.0,69,0.00,,,0.06,Wunderground v.1.15,2013-06-30 01:39:00,
2013-06-29 20:45:00,67.6,57.1,29.83,SE,139,3.0,6.0,69,0.00,,,0.06,Wunderground v.1.15,2013-06-30 01:45:00,
2013-06-29 20:50:00,67.5,57.0,29.83,SE,146,2.0,6.0,69,0.00,,,0.06,Wunderground v.1.15,2013-06-30 01:50:00,
2013-06-29 20:56:00,67.3,57.2,29.83,SSE,150,2.0,6.0,70,0.00,,,0.06,Wunderground v.1.15,2013-06-30 01:56:00,
2013-06-29 21:02:00,67.3,57.2,29.83,SE,136,2.0,6.0,70,0.00,,,0.06,Wunderground v.1.15,2013-06-30 02:02:00,
2013-06-29 21:08:00,67.2,57.5,29.84,South,176,2.0,6.0,71,0.00,,,0.06,Wunderground v.1.15,2013-06-30 02:08:00,
2013-06-29 21:13:00,67.2,57.5,29.84,SE,132,3.0,6.0,71,0.00,,,0.06,Wunderground v.1.15,2013-06-30 02:13:00,
2013-06-29 21:19:00,67.3,57.6,29.84,South,181,4.0,6.0,71,0.00,,,0.06,Wunderground v.1.15,2013-06-30 02:19:00,
2013-06-29 21:25:00,67.2,57.5,29.84,SE,135,3.0,6.0,71,0.00,,,0.06,Wunderground v.1.15,2013-06-30 02:25:00,
2013-06-29 21:31:00,67.2,57.5,29.84,SE,146,2.0,6.0,71,0.00,,,0.06,Wunderground v.1.15,2013-06-30 02:31:00,
2013-06-29 21:37:00,67.2,57.5,29.84,South,179,2.0,6.0,71,0.00,,,0.06,Wunderground v.1.15,2013-06-30 02:37:00,
2013-06-29 21:43:00,67.1,57.8,29.85,SE,131,2.0,6.0,72,0.00,,,0.06,Wunderground v.1.15,2013-06-30 02:43:00,
2013-06-29 21:49:00,67.1,57.8,29.85,SE,132,2.0,6.0,72,0.00,,,0.06,Wunderground v.1.15,2013-06-30 02:49:00,
2013-06-29 21:55:00,67.1,57.8,29.85,SE,126,2.0,6.0,72,0.00,,,0.06,Wunderground v.1.15,2013-06-30 02:55:00,
2013-06-29 22:00:00,67.0,58.1,29.85,SE,146,2.0,2.0,73,0.00,,,0.06,Wunderground v.1.15,2013-06-30 03:00:00,
2013-06-29 22:06:00,67.0,57.7,29.85,SSE,162,1.0,6.0,72,0.00,,,0.06,Wunderground v.1.15,2013-06-30 03:06:00,
2013-06-29 22:11:00,67.0,58.1,29.86,SE,146,1.0,6.0,73,0.00,,,0.06,Wunderground v.1.15,2013-06-30 03:11:00,
2013-06-29 22:17:00,67.0,58.1,29.86,SE,134,1.0,6.0,73,0.00,,,0.06,Wunderground v.1.15,2013-06-30 03:17:00,
2013-06-29 22:23:00,66.9,58.0,29.86,SE,132,2.0,6.0,73,0.00,,,0.06,Wunderground v.1.15,2013-06-30 03:23:00,
2013-06-29 22:29:00,67.0,58.1,29.86,SSE,151,2.0,6.0,73,0.00,,,0.06,Wunderground v.1.15,2013-06-30 03:29:00,
2013-06-29 22:34:00,67.1,57.8,29.86,SE,126,2.0,6.0,72,0.00,,,0.06,Wunderground v.1.15,2013-06-30 03:34:00,
2013-06-29 22:40:00,67.1,58.2,29.86,SE,136,2.0,6.0,73,0.00,,,0.06,Wunderground v.1.15,2013-06-30 03:40:00,
2013-06-29 22:46:00,67.1,57.8,29.87,SE,137,1.0,6.0,72,0.00,,,0.06,Wunderground v.1.15,2013-06-30 03:46:00,
2013-06-29 22:52:00,67.0,57.7,29.87,SE,136,2.0,6.0,72,0.00,,,0.06,Wunderground v.1.15,2013-06-30 03:52:00,
2013-06-29 22:57:00,67.1,57.4,29.87,SE,138,2.0,6.0,71,0.00,,,0.06,Wunderground v.1.15,2013-06-30 03:57:00,
2013-06-29 23:01:00,67.1,57.4,29.87,SE,131,3.0,6.0,71,0.00,,,0.06,Wunderground v.1.15,2013-06-30 04:01:00,
2013-06-29 23:03:00,67.1,57.4,29.87,South,188,2.0,6.0,71,0.00,,,0.06,Wunderground v.1.15,2013-06-30 04:03:00,
2013-06-29 23:06:00,67.0,57.3,29.87,SE,137,3.0,6.0,71,0.00,,,0.06,Wunderground v.1.15,2013-06-30 04:06:00,
2013-06-29 23:07:00,67.0,57.3,29.87,South,186,2.0,6.0,71,0.00,,,0.06,Wunderground v.1.15,2013-06-30 04:07:00,
2013-06-29 23:13:00,66.9,57.6,29.87,SE,136,2.0,6.0,72,0.00,,,0.06,Wunderground v.1.15,2013-06-30 04:13:00,
2013-06-29 23:18:00,66.8,57.5,29.87,SE,139,2.0,6.0,72,0.00,,,0.06,Wunderground v.1.15,2013-06-30 04:18:00,
2013-06-29 23:24:00,66.7,57.4,29.87,SSE,161,2.0,6.0,72,0.00,,,0.06,Wunderground v.1.15,2013-06-30 04:24:00,
2013-06-29 23:30:00,66.6,57.3,29.87,SE,139,2.0,2.0,72,0.00,,,0.06,Wunderground v.1.15,2013-06-30 04:30:00,
2013-06-29 23:36:00,66.4,57.5,29.87,SE,140,2.0,6.0,73,0.00,,,0.06,Wunderground v.1.15,2013-06-30 04:36:00,
2013-06-29 23:41:00,66.3,57.8,29.87,SSE,149,2.0,6.0,74,0.00,,,0.06,Wunderground v.1.15,2013-06-30 04:41:00,
2013-06-29 23:47:00,66.1,57.6,29.87,SE,136,1.0,6.0,74,0.00,,,0.06,Wunderground v.1.15,2013-06-30 04:47:00,
2013-06-29 23:53:00,66.0,57.5,29.87,SE,124,1.0,6.0,74,0.00,,,0.06,Wunderground v.1.15,2013-06-30 04:53:00,
2013-06-29 23:59:00,65.9,57.4,29.88,SSE,152,1.0,6.0,74,0.00,,,0.06,Wunderground v.1.15,2013-06-30 04:59:00,